| time (UTC) | temp C | wind direction | speed KPH | gust KPH | rain 1hr cm | rain 24hr cm | rain mn cm | humidity % | barometer mb |
| 20260507052714 | 16 | 135 | 0.0 | 1.6 | 0.00 | 0.00 | 0.00 | 47 | 988.9 |
| 20260507052308 | 16 | 135 | 1.6 | 1.6 | 0.00 | 0.00 | 0.00 | 47 | 988.9 |
| 20260507052127 | 16 | 116 | 1.6 | 1.6 | 0.00 | 0.00 | 0.00 | 46 | 989.0 |
| 20260507051659 | 17 | 135 | 0.0 | 4.8 | 0.00 | 0.00 | 0.00 | 47 | 989.0 |
| 20260507051455 | 17 | 180 | 0.0 | 4.8 | 0.00 | 0.00 | 0.00 | 47 | 989.0 |
| 20260507051316 | 17 | 126 | 0.0 | 1.6 | 0.00 | 0.00 | 0.00 | 45 | 989.0 |
| 20260507050904 | 18 | 289 | 0.0 | 1.6 | 0.00 | 0.00 | 0.00 | 45 | 988.9 |
| 20260507050635 | 18 | 0 | 0.0 | 1.6 | 0.00 | 0.00 | 0.00 | 45 | 989.0 |
| 20260507050440 | 18 | 0 | 0.0 | 0.0 | 0.00 | 0.00 | 0.00 | 46 | 989.0 |
| 20260507050231 | 18 | 0 | 0.0 | 0.0 | 0.00 | 0.00 | 0.00 | 46 | 989.1 |
| 20260507050041 | 18 | 89 | 0.0 | 0.0 | 0.00 | 0.00 | 0.00 | 46 | 989.1 |
| 20260507045635 | 18 | 270 | 0.0 | 0.0 | 0.00 | 0.00 | 0.00 | 46 | 989.0 |
| 20260507045018 | 18 | 321 | 1.6 | 3.2 | 0.00 | 0.00 | 0.00 | 46 | 989.1 |
| 20260507044836 | 17 | 0 | 0.0 | 1.6 | 0.00 | 0.00 | 0.00 | 47 | 989.0 |
| 20260507044624 | 17 | 119 | 0.0 | 3.2 | 0.00 | 0.00 | 0.00 | 47 | 989.0 |
| 20260507044420 | 17 | 351 | 0.0 | 4.8 | 0.00 | 0.00 | 0.00 | 47 | 989.0 |
| 20260507044158 | 17 | 323 | 1.6 | 4.8 | 0.00 | 0.00 | 0.00 | 47 | 989.1 |
| 20260507044017 | 17 | 325 | 3.2 | 4.8 | 0.00 | 0.00 | 0.00 | 46 | 989.1 |
| 20260507043810 | 17 | 342 | 3.2 | 4.8 | 0.00 | 0.00 | 0.00 | 46 | 989.1 |
| 20260507043604 | 17 | 334 | 1.6 | 3.2 | 0.00 | 0.00 | 0.00 | 46 | 989.1 |
| 20260507043409 | 17 | 314 | 1.6 | 4.8 | 0.00 | 0.00 | 0.00 | 46 | 989.1 |
| 20260507043154 | 17 | 356 | 3.2 | 4.8 | 0.00 | 0.00 | 0.00 | 46 | 989.0 |
| 20260507042950 | 17 | 347 | 1.6 | 4.8 | 0.00 | 0.00 | 0.00 | 46 | 989.1 |
| 20260507042810 | 17 | 315 | 0.0 | 3.2 | 0.00 | 0.00 | 0.00 | 46 | 989.1 |
| 20260507042602 | 17 | 330 | 1.6 | 4.8 | 0.00 | 0.00 | 0.00 | 46 | 989.1 |
| 20260507042358 | 17 | 325 | 1.6 | 8.0 | 0.00 | 0.00 | 0.00 | 46 | 989.2 |
| 20260507041544 | 17 | 354 | 3.2 | 4.8 | 0.00 | 0.00 | 0.00 | 46 | 989.2 |
| 20260507041138 | 17 | 313 | 1.6 | 4.8 | 0.00 | 0.00 | 0.00 | 47 | 989.2 |
| 20260507040918 | 17 | 0 | 3.2 | 6.4 | 0.00 | 0.00 | 0.00 | 47 | 989.3 |
| 20260507040722 | 17 | 0 | 1.6 | 6.4 | 0.00 | 0.00 | 0.00 | 47 | 989.3 |
| 20260507040517 | 17 | 354 | 1.6 | 4.8 | 0.00 | 0.00 | 0.00 | 47 | 989.3 |
| 20260507040338 | 17 | 318 | 1.6 | 4.8 | 0.00 | 0.00 | 0.00 | 47 | 989.3 |
| 20260507040106 | 17 | 329 | 3.2 | 4.8 | 0.00 | 0.00 | 0.00 | 46 | 989.4 |
| 20260507035910 | 17 | 322 | 0.0 | 4.8 | 0.00 | 0.00 | 0.00 | 46 | 989.2 |
| 20260507035653 | 17 | 352 | 3.2 | 4.8 | 0.00 | 0.00 | 0.00 | 46 | 989.4 |
| 20260507035513 | 17 | 333 | 1.6 | 4.8 | 0.00 | 0.00 | 0.00 | 46 | 989.4 |
| 20260507035305 | 17 | 343 | 4.8 | 4.8 | 0.00 | 0.00 | 0.00 | 46 | 989.3 |
| 20260507034904 | 17 | 322 | 0.0 | 6.4 | 0.00 | 0.00 | 0.00 | 46 | 989.4 |
| 20260507034647 | 17 | 342 | 3.2 | 6.4 | 0.00 | 0.00 | 0.00 | 46 | 989.4 |
| 20260507033900 | 17 | 337 | 3.2 | 4.8 | 0.00 | 0.00 | 0.00 | 46 | 989.3 |
| 20260507033700 | 17 | 323 | 1.6 | 4.8 | 0.00 | 0.00 | 0.00 | 46 | 989.3 |
| 20260507033436 | 18 | 327 | 3.2 | 4.8 | 0.00 | 0.00 | 0.00 | 46 | 989.4 |
| 20260507032839 | 18 | 346 | 4.8 | 6.4 | 0.00 | 0.00 | 0.00 | 46 | 989.4 |
| 20260507032421 | 18 | 350 | 1.6 | 6.4 | 0.00 | 0.00 | 0.00 | 46 | 989.4 |
| 20260507032213 | 18 | 336 | 4.8 | 6.4 | 0.00 | 0.00 | 0.00 | 46 | 989.4 |
| 20260507032034 | 18 | 344 | 3.2 | 6.4 | 0.00 | 0.00 | 0.00 | 46 | 989.3 |
| 20260507031603 | 18 | 341 | 1.6 | 4.8 | 0.00 | 0.00 | 0.00 | 46 | 989.4 |
| 20260507031352 | 18 | 323 | 1.6 | 4.8 | 0.00 | 0.00 | 0.00 | 46 | 989.3 |
| 20260507031137 | 18 | 359 | 1.6 | 4.8 | 0.00 | 0.00 | 0.00 | 46 | 989.3 |
| 20260507030737 | 18 | 337 | 4.8 | 6.4 | 0.00 | 0.00 | 0.00 | 46 | 989.4 |
| 20260507030536 | 18 | 300 | 1.6 | 6.4 | 0.00 | 0.00 | 0.00 | 45 | 989.4 |
| 20260507030337 | 18 | 342 | 4.8 | 4.8 | 0.00 | 0.00 | 0.00 | 45 | 989.5 |
| 20260507030139 | 18 | 0 | 4.8 | 4.8 | 0.00 | 0.00 | 0.00 | 45 | 989.5 |
| 20260507025925 | 18 | 325 | 4.8 | 4.8 | 0.00 | 0.00 | 0.00 | 45 | 989.6 |
| 20260507025730 | 18 | 350 | 1.6 | 3.2 | 0.00 | 0.00 | 0.00 | 45 | 989.6 |
| 20260507025514 | 18 | 353 | 1.6 | 3.2 | 0.00 | 0.00 | 0.00 | 45 | 989.5 |
| 20260507024919 | 18 | 348 | 3.2 | 3.2 | 0.00 | 0.00 | 0.00 | 45 | 989.5 |
| 20260507024259 | 18 | 0 | 0.0 | 3.2 | 0.00 | 0.00 | 0.00 | 45 | 989.6 |
| 20260507024104 | 18 | 350 | 1.6 | 6.4 | 0.00 | 0.00 | 0.00 | 45 | 989.6 |
| 20260507023846 | 18 | 324 | 3.2 | 6.4 | 0.00 | 0.00 | 0.00 | 45 | 989.5 |
| 20260507023654 | 18 | 346 | 1.6 | 6.4 | 0.00 | 0.00 | 0.00 | 46 | 989.6 |
| 20260507023442 | 18 | 344 | 1.6 | 1.6 | 0.00 | 0.00 | 0.00 | 46 | 989.6 |
| 20260507023104 | 18 | 342 | 0.0 | 3.2 | 0.00 | 0.00 | 0.00 | 46 | 989.7 |
| 20260507022848 | 18 | 0 | 0.0 | 3.2 | 0.00 | 0.00 | 0.00 | 46 | 989.6 |
| 20260507022647 | 18 | 328 | 3.2 | 4.8 | 0.00 | 0.00 | 0.00 | 46 | 989.7 |
| 20260507022431 | 18 | 333 | 1.6 | 4.8 | 0.00 | 0.00 | 0.00 | 46 | 989.7 |
| 20260507022235 | 18 | 0 | 4.8 | 4.8 | 0.00 | 0.00 | 0.00 | 46 | 989.6 |
| 20260507022043 | 18 | 331 | 3.2 | 6.4 | 0.00 | 0.00 | 0.00 | 46 | 989.6 |
| 20260507021621 | 18 | 352 | 3.2 | 9.7 | 0.00 | 0.00 | 0.00 | 46 | 989.6 |
| 20260507021431 | 18 | 333 | 3.2 | 9.7 | 0.00 | 0.00 | 0.00 | 46 | 989.5 |
| 20260507021207 | 18 | 340 | 9.7 | 9.7 | 0.00 | 0.00 | 0.00 | 46 | 989.5 |
| 20260507021001 | 18 | 327 | 3.2 | 8.0 | 0.00 | 0.00 | 0.00 | 46 | 989.6 |
| 20260507020200 | 18 | 346 | 3.2 | 8.0 | 0.00 | 0.00 | 0.00 | 46 | 989.6 |
| 20260507020025 | 18 | 337 | 3.2 | 8.0 | 0.00 | 0.00 | 0.00 | 46 | 989.5 |
| 20260507015747 | 18 | 344 | 3.2 | 8.0 | 0.00 | 0.00 | 0.00 | 46 | 989.6 |
| 20260507015547 | 18 | 334 | 3.2 | 8.0 | 0.00 | 0.00 | 0.00 | 45 | 989.6 |
| 20260507015337 | 18 | 343 | 3.2 | 8.0 | 0.00 | 0.00 | 0.00 | 45 | 989.6 |
| 20260507015201 | 18 | 346 | 4.8 | 8.0 | 0.00 | 0.00 | 0.00 | 45 | 989.6 |
| 20260507014933 | 18 | 353 | 4.8 | 8.0 | 0.00 | 0.00 | 0.00 | 45 | 989.7 |
| 20260507014750 | 18 | 331 | 3.2 | 4.8 | 0.00 | 0.00 | 0.00 | 45 | 989.6 |
| 20260507014524 | 18 | 327 | 1.6 | 4.8 | 0.00 | 0.00 | 0.00 | 45 | 989.7 |
| 20260507014329 | 18 | 338 | 1.6 | 4.8 | 0.00 | 0.00 | 0.00 | 45 | 989.6 |
| 20260507014158 | 18 | 0 | 4.8 | 4.8 | 0.00 | 0.00 | 0.00 | 45 | 989.7 |
| 20260507013928 | 18 | 353 | 1.6 | 6.4 | 0.00 | 0.00 | 0.00 | 45 | 989.8 |
| 20260507013726 | 18 | 325 | 3.2 | 6.4 | 0.00 | 0.00 | 0.00 | 45 | 989.7 |
| 20260507013532 | 18 | 355 | 6.4 | 6.4 | 0.00 | 0.00 | 0.00 | 45 | 989.9 |
| 20260507013129 | 18 | 349 | 1.6 | 6.4 | 0.00 | 0.00 | 0.00 | 45 | 989.8 |
| 20260507012934 | 18 | 327 | 3.2 | 8.0 | 0.00 | 0.00 | 0.00 | 46 | 989.8 |
| 20260507012710 | 18 | 342 | 3.2 | 8.0 | 0.00 | 0.00 | 0.00 | 46 | 989.8 |
| 20260507012452 | 18 | 318 | 3.2 | 6.4 | 0.00 | 0.00 | 0.00 | 46 | 989.7 |
| 20260507012329 | 18 | 346 | 4.8 | 9.7 | 0.00 | 0.00 | 0.00 | 46 | 989.8 |
| 20260507012052 | 18 | 346 | 3.2 | 9.7 | 0.00 | 0.00 | 0.00 | 46 | 989.8 |
| 20260507011916 | 18 | 341 | 3.2 | 6.4 | 0.00 | 0.00 | 0.00 | 45 | 989.8 |
| 20260507011712 | 18 | 319 | 4.8 | 4.8 | 0.00 | 0.00 | 0.00 | 45 | 989.9 |
| 20260507011455 | 18 | 343 | 3.2 | 8.0 | 0.00 | 0.00 | 0.00 | 45 | 989.9 |
| 20260507011236 | 18 | 0 | 1.6 | 8.0 | 0.00 | 0.00 | 0.00 | 45 | 989.9 |
| 20260507010638 | 18 | 341 | 1.6 | 6.4 | 0.00 | 0.00 | 0.00 | 45 | 990.0 |
| 20260507010230 | 18 | 347 | 6.4 | 6.4 | 0.00 | 0.00 | 0.00 | 45 | 990.0 |
| 20260507005905 | 18 | 351 | 1.6 | 6.4 | 0.00 | 0.00 | 0.00 | 45 | 990.1 |
| 20260507005016 | 18 | 336 | 4.8 | 8.0 | 0.00 | 0.00 | 0.00 | 45 | 990.1 |
| 20260507004803 | 18 | 347 | 4.8 | 8.0 | 0.00 | 0.00 | 0.00 | 45 | 990.1 |
| 20260507004611 | 18 | 355 | 6.4 | 8.0 | 0.00 | 0.00 | 0.00 | 45 | 990.2 |
| 20260507004349 | 18 | 351 | 4.8 | 4.8 | 0.00 | 0.00 | 0.00 | 45 | 990.2 |
| 20260507004211 | 18 | 349 | 4.8 | 4.8 | 0.00 | 0.00 | 0.00 | 45 | 990.2 |
| 20260507003543 | 18 | 331 | 1.6 | 4.8 | 0.00 | 0.00 | 0.00 | 45 | 990.2 |
| 20260507003346 | 18 | 323 | 1.6 | 6.4 | 0.00 | 0.00 | 0.00 | 45 | 990.3 |
| 20260507003148 | 18 | 334 | 1.6 | 6.4 | 0.00 | 0.00 | 0.00 | 45 | 990.2 |
| 20260507002942 | 18 | 326 | 1.6 | 6.4 | 0.00 | 0.00 | 0.00 | 45 | 990.2 |
| 20260507002729 | 18 | 327 | 4.8 | 8.0 | 0.00 | 0.00 | 0.00 | 45 | 990.2 |
| 20260507002546 | 18 | 340 | 3.2 | 8.0 | 0.00 | 0.00 | 0.00 | 45 | 990.3 |
| 20260507002320 | 18 | 337 | 6.4 | 6.4 | 0.00 | 0.00 | 0.00 | 45 | 990.2 |
| 20260507002127 | 18 | 315 | 3.2 | 9.7 | 0.00 | 0.00 | 0.00 | 45 | 990.3 |
| 20260507001715 | 18 | 333 | 9.7 | 9.7 | 0.00 | 0.00 | 0.00 | 45 | 990.4 |
| 20260507001509 | 18 | 323 | 3.2 | 6.4 | 0.00 | 0.00 | 0.00 | 45 | 990.3 |
| 20260507001321 | 18 | 326 | 4.8 | 6.4 | 0.00 | 0.00 | 0.00 | 45 | 990.3 |
| 20260507001103 | 18 | 324 | 6.4 | 9.7 | 0.00 | 0.00 | 0.00 | 45 | 990.2 |
| 20260507000902 | 18 | 346 | 4.8 | 9.7 | 0.00 | 0.00 | 0.00 | 45 | 990.3 |
| 20260507000303 | 18 | 335 | 6.4 | 11.3 | 0.00 | 0.00 | 0.00 | 45 | 990.3 |
| 20260507000108 | 18 | 349 | 8.0 | 11.3 | 0.00 | 0.00 | 0.00 | 45 | 990.3 |
| 20260506235840 | 18 | 346 | 3.2 | 8.0 | 0.00 | 0.00 | 0.00 | 45 | 990.3 |
| 20260506235645 | 18 | 352 | 6.4 | 9.7 | 0.00 | 0.00 | 0.00 | 45 | 990.3 |
| 20260506235438 | 18 | 331 | 1.6 | 9.7 | 0.00 | 0.00 | 0.00 | 45 | 990.2 |
| 20260506235253 | 18 | 341 | 6.4 | 9.7 | 0.00 | 0.00 | 0.00 | 45 | 990.3 |
| 20260506234838 | 18 | 338 | 8.0 | 8.0 | 0.00 | 0.00 | 0.00 | 45 | 990.2 |
| 20260506234651 | 18 | 322 | 8.0 | 8.0 | 0.00 | 0.00 | 0.00 | 45 | 990.2 |
| 20260506234430 | 18 | 333 | 4.8 | 11.3 | 0.00 | 0.00 | 0.00 | 45 | 990.1 |
| 20260506234213 | 18 | 344 | 4.8 | 11.3 | 0.00 | 0.00 | 0.00 | 45 | 990.2 |
| 20260506233807 | 18 | 340 | 4.8 | 9.7 | 0.00 | 0.00 | 0.00 | 45 | 990.1 |
| 20260506233614 | 18 | 337 | 4.8 | 9.7 | 0.00 | 0.00 | 0.00 | 44 | 990.2 |
| 20260506233417 | 18 | 336 | 3.2 | 11.3 | 0.00 | 0.00 | 0.00 | 44 | 990.1 |
| 20260506233205 | 18 | 343 | 4.8 | 11.3 | 0.00 | 0.00 | 0.00 | 44 | 990.2 |
| 20260506232956 | 18 | 311 | 4.8 | 11.3 | 0.00 | 0.00 | 0.00 | 44 | 990.2 |
| 20260506232828 | 18 | 344 | 3.2 | 9.7 | 0.00 | 0.00 | 0.00 | 44 | 990.3 |
| 20260506232356 | 18 | 349 | 4.8 | 14.5 | 0.00 | 0.00 | 0.00 | 44 | 990.2 |
| 20260506232226 | 18 | 332 | 6.4 | 8.0 | 0.00 | 0.00 | 0.00 | 44 | 990.1 |
| 20260506231938 | 18 | 337 | 4.8 | 8.0 | 0.00 | 0.00 | 0.00 | 44 | 990.2 |
| 20260506231633 | 18 | 330 | 3.2 | 9.7 | 0.00 | 0.00 | 0.00 | 44 | 990.2 |
| 20260506231335 | 18 | 327 | 4.8 | 9.7 | 0.00 | 0.00 | 0.00 | 44 | 990.2 |
| 20260506231140 | 18 | 340 | 4.8 | 8.0 | 0.00 | 0.00 | 0.00 | 44 | 990.2 |
| 20260506230951 | 18 | 341 | 4.8 | 11.3 | 0.00 | 0.00 | 0.00 | 44 | 990.2 |
| 20260506230551 | 18 | 337 | 11.3 | 11.3 | 0.00 | 0.00 | 0.00 | 44 | 990.3 |
| 20260506230132 | 18 | 320 | 4.8 | 9.7 | 0.00 | 0.00 | 0.00 | 44 | 990.2 |
| 20260506225908 | 18 | 333 | 4.8 | 11.3 | 0.00 | 0.00 | 0.00 | 44 | 990.3 |
| 20260506225731 | 18 | 338 | 4.8 | 11.3 | 0.00 | 0.00 | 0.00 | 44 | 990.3 |
| 20260506225100 | 18 | 349 | 8.0 | 11.3 | 0.00 | 0.00 | 0.00 | 44 | 990.3 |
| 20260506224724 | 18 | 320 | 8.0 | 11.3 | 0.00 | 0.00 | 0.00 | 44 | 990.4 |
| 20260506224511 | 18 | 338 | 3.2 | 12.9 | 0.00 | 0.00 | 0.00 | 44 | 990.3 |
| 20260506224257 | 18 | 341 | 4.8 | 12.9 | 0.00 | 0.00 | 0.00 | 44 | 990.3 |
| 20260506223859 | 18 | 336 | 4.8 | 9.7 | 0.00 | 0.00 | 0.00 | 44 | 990.4 |
| 20260506223452 | 18 | 328 | 6.4 | 11.3 | 0.00 | 0.00 | 0.00 | 43 | 990.4 |
| 20260506223254 | 18 | 345 | 9.7 | 11.3 | 0.00 | 0.00 | 0.00 | 43 | 990.5 |
| 20260506223113 | 18 | 340 | 8.0 | 11.3 | 0.00 | 0.00 | 0.00 | 43 | 990.5 |
| 20260506222837 | 18 | 339 | 3.2 | 11.3 | 0.00 | 0.00 | 0.00 | 43 | 990.5 |
| 20260506222642 | 18 | 331 | 6.4 | 12.9 | 0.00 | 0.00 | 0.00 | 43 | 990.4 |
| 20260506222434 | 18 | 342 | 6.4 | 12.9 | 0.00 | 0.00 | 0.00 | 43 | 990.4 |
| 20260506222231 | 18 | 330 | 8.0 | 12.9 | 0.00 | 0.00 | 0.00 | 43 | 990.5 |
| 20260506221608 | 18 | 328 | 4.8 | 12.9 | 0.00 | 0.00 | 0.00 | 43 | 990.4 |
| 20260506221031 | 19 | 335 | 4.8 | 14.5 | 0.00 | 0.00 | 0.00 | 42 | 990.5 |
| 20260506220753 | 19 | 338 | 8.0 | 14.5 | 0.00 | 0.00 | 0.00 | 42 | 990.5 |
| 20260506220620 | 19 | 338 | 11.3 | 11.3 | 0.00 | 0.00 | 0.00 | 42 | 990.6 |
| 20260506220347 | 19 | 330 | 3.2 | 9.7 | 0.00 | 0.00 | 0.00 | 42 | 990.5 |
| 20260506220154 | 19 | 352 | 6.4 | 9.7 | 0.00 | 0.00 | 0.00 | 42 | 990.5 |
| 20260506220020 | 19 | 359 | 8.0 | 11.3 | 0.00 | 0.00 | 0.00 | 42 | 990.6 |
| 20260506215529 | 19 | 330 | 3.2 | 14.5 | 0.00 | 0.00 | 0.00 | 42 | 990.6 |
| 20260506215323 | 19 | 347 | 12.9 | 14.5 | 0.00 | 0.00 | 0.00 | 42 | 990.6 |
| 20260506215128 | 19 | 337 | 14.5 | 14.5 | 0.00 | 0.00 | 0.00 | 42 | 990.6 |
| 20260506214917 | 19 | 341 | 8.0 | 11.3 | 0.00 | 0.00 | 0.00 | 42 | 990.6 |
| 20260506214715 | 19 | 334 | 8.0 | 11.3 | 0.00 | 0.00 | 0.00 | 42 | 990.6 |
| 20260506214529 | 19 | 341 | 8.0 | 11.3 | 0.00 | 0.00 | 0.00 | 42 | 990.6 |
| 20260506214315 | 19 | 317 | 3.2 | 14.5 | 0.00 | 0.00 | 0.00 | 42 | 990.5 |
| 20260506213924 | 19 | 337 | 6.4 | 11.3 | 0.00 | 0.00 | 0.00 | 41 | 990.5 |
| 20260506213706 | 19 | 341 | 8.0 | 9.7 | 0.00 | 0.00 | 0.00 | 41 | 990.5 |
| 20260506213319 | 19 | 333 | 3.2 | 14.5 | 0.00 | 0.00 | 0.00 | 41 | 990.6 |
| 20260506212846 | 19 | 339 | 6.4 | 14.5 | 0.00 | 0.00 | 0.00 | 41 | 990.6 |
| 20260506212712 | 19 | 339 | 8.0 | 14.5 | 0.00 | 0.00 | 0.00 | 41 | 990.5 |
| 20260506212504 | 19 | 327 | 11.3 | 14.5 | 0.00 | 0.00 | 0.00 | 41 | 990.5 |
| 20260506211845 | 19 | 333 | 8.0 | 12.9 | 0.00 | 0.00 | 0.00 | 40 | 990.5 |
| 20260506211020 | 20 | 332 | 6.4 | 8.0 | 0.00 | 0.00 | 0.00 | 39 | 990.6 |
| 20260506210823 | 20 | 334 | 6.4 | 11.3 | 0.00 | 0.00 | 0.00 | 39 | 990.6 |
| 20260506210613 | 20 | 348 | 4.8 | 11.3 | 0.00 | 0.00 | 0.00 | 39 | 990.5 |
| 20260506210503 | 20 | 327 | 4.8 | 11.3 | 0.00 | 0.00 | 0.00 | 39 | 990.6 |
| 20260506210203 | 20 | 341 | 6.4 | 11.3 | 0.00 | 0.00 | 0.00 | 39 | 990.6 |
| 20260506210051 | 20 | 340 | 9.7 | 11.3 | 0.00 | 0.00 | 0.00 | 39 | 990.5 |
| 20260506205759 | 20 | 338 | 3.2 | 11.3 | 0.00 | 0.00 | 0.00 | 38 | 990.5 |
| 20260506205633 | 20 | 337 | 6.4 | 11.3 | 0.00 | 0.00 | 0.00 | 38 | 990.5 |
| 20260506205415 | 20 | 332 | 9.7 | 9.7 | 0.00 | 0.00 | 0.00 | 38 | 990.4 |
| 20260506205204 | 20 | 339 | 4.8 | 12.9 | 0.00 | 0.00 | 0.00 | 38 | 990.5 |
| 20260506204956 | 20 | 328 | 4.8 | 12.9 | 0.00 | 0.00 | 0.00 | 38 | 990.6 |
| 20260506204751 | 20 | 315 | 12.9 | 12.9 | 0.00 | 0.00 | 0.00 | 37 | 990.4 |
| 20260506204609 | 20 | 341 | 6.4 | 14.5 | 0.00 | 0.00 | 0.00 | 37 | 990.4 |
| 20260506204352 | 20 | 327 | 3.2 | 14.5 | 0.00 | 0.00 | 0.00 | 37 | 990.4 |
| 20260506204140 | 20 | 333 | 9.7 | 14.5 | 0.00 | 0.00 | 0.00 | 37 | 990.4 |
| 20260506204004 | 20 | 326 | 3.2 | 9.7 | 0.00 | 0.00 | 0.00 | 37 | 990.4 |
| 20260506203733 | 20 | 334 | 9.7 | 9.7 | 0.00 | 0.00 | 0.00 | 37 | 990.4 |
| 20260506203601 | 20 | 333 | 4.8 | 11.3 | 0.00 | 0.00 | 0.00 | 36 | 990.4 |
| 20260506203327 | 20 | 358 | 3.2 | 11.3 | 0.00 | 0.00 | 0.00 | 36 | 990.3 |
| 20260506203132 | 20 | 322 | 9.7 | 11.3 | 0.00 | 0.00 | 0.00 | 36 | 990.4 |
| 20260506203009 | 20 | 338 | 8.0 | 12.9 | 0.00 | 0.00 | 0.00 | 36 | 990.3 |
| 20260506202739 | 20 | 336 | 4.8 | 12.9 | 0.00 | 0.00 | 0.00 | 35 | 990.3 |
| 20260506202517 | 20 | 320 | 4.8 | 12.9 | 0.00 | 0.00 | 0.00 | 35 | 990.3 |
| 20260506202311 | 20 | 333 | 8.0 | 9.7 | 0.00 | 0.00 | 0.00 | 35 | 990.2 |
| 20260506201249 | 21 | 347 | 4.8 | 9.7 | 0.00 | 0.00 | 0.00 | 34 | 990.1 |
| 20260506200915 | 21 | 329 | 3.2 | 11.3 | 0.00 | 0.00 | 0.00 | 34 | 990.1 |
| 20260506200658 | 21 | 317 | 3.2 | 11.3 | 0.00 | 0.00 | 0.00 | 34 | 990.1 |
| 20260506200437 | 21 | 333 | 6.4 | 11.3 | 0.00 | 0.00 | 0.00 | 34 | 990.0 |
| 20260506200326 | 21 | 333 | 9.7 | 11.3 | 0.00 | 0.00 | 0.00 | 33 | 990.1 |
| 20260506200040 | 21 | 331 | 3.2 | 11.3 | 0.00 | 0.00 | 0.00 | 33 | 990.0 |
| 20260506195226 | 21 | 322 | 3.2 | 9.7 | 0.00 | 0.00 | 0.00 | 32 | 989.9 |
| 20260506195055 | 21 | 351 | 6.4 | 9.7 | 0.00 | 0.00 | 0.00 | 32 | 990.0 |
| 20260506194831 | 21 | 343 | 6.4 | 12.9 | 0.00 | 0.00 | 0.00 | 32 | 990.0 |
| 20260506194230 | 21 | 344 | 4.8 | 14.5 | 0.00 | 0.00 | 0.00 | 31 | 989.8 |
| 20260506194011 | 21 | 334 | 8.0 | 14.5 | 0.00 | 0.00 | 0.00 | 31 | 989.9 |
| 20260506193820 | 21 | 333 | 9.7 | 14.5 | 0.00 | 0.00 | 0.00 | 31 | 989.9 |
| 20260506193411 | 21 | 338 | 8.0 | 14.5 | 0.00 | 0.00 | 0.00 | 30 | 989.9 |
| 20260506193216 | 21 | 332 | 9.7 | 16.1 | 0.00 | 0.00 | 0.00 | 30 | 989.9 |
| 20260506192628 | 22 | 320 | 4.8 | 12.9 | 0.00 | 0.00 | 0.00 | 29 | 989.9 |
| 20260506192354 | 22 | 320 | 6.4 | 12.9 | 0.00 | 0.00 | 0.00 | 29 | 989.8 |
| 20260506192142 | 22 | 334 | 4.8 | 12.9 | 0.00 | 0.00 | 0.00 | 29 | 989.8 |
| 20260506191952 | 22 | 333 | 9.7 | 14.5 | 0.00 | 0.00 | 0.00 | 29 | 989.8 |
| 20260506191736 | 22 | 321 | 6.4 | 14.5 | 0.00 | 0.00 | 0.00 | 29 | 989.7 |
| 20260506191358 | 22 | 335 | 11.3 | 16.1 | 0.00 | 0.00 | 0.00 | 28 | 989.6 |
| 20260506191118 | 22 | 334 | 11.3 | 16.1 | 0.00 | 0.00 | 0.00 | 28 | 989.7 |
| 20260506190917 | 22 | 312 | 8.0 | 14.5 | 0.00 | 0.00 | 0.00 | 28 | 989.7 |
| 20260506190713 | 22 | 325 | 9.7 | 14.5 | 0.00 | 0.00 | 0.00 | 28 | 989.6 |
| 20260506190521 | 22 | 340 | 9.7 | 14.5 | 0.00 | 0.00 | 0.00 | 27 | 989.6 |
| 20260506190315 | 22 | 318 | 11.3 | 14.5 | 0.00 | 0.00 | 0.00 | 27 | 989.5 |
| 20260506190118 | 22 | 326 | 9.7 | 16.1 | 0.00 | 0.00 | 0.00 | 27 | 989.5 |
| 20260506185911 | 22 | 341 | 12.9 | 16.1 | 0.00 | 0.00 | 0.00 | 27 | 989.5 |
| 20260506185705 | 22 | 327 | 11.3 | 16.1 | 0.00 | 0.00 | 0.00 | 27 | 989.4 |
| 20260506185456 | 22 | 339 | 11.3 | 16.1 | 0.00 | 0.00 | 0.00 | 26 | 989.5 |
| 20260506185325 | 23 | 342 | 8.0 | 16.1 | 0.00 | 0.00 | 0.00 | 26 | 989.4 |
| 20260506185046 | 23 | 351 | 16.1 | 16.1 | 0.00 | 0.00 | 0.00 | 26 | 989.5 |
| 20260506184850 | 23 | 328 | 8.0 | 11.3 | 0.00 | 0.00 | 0.00 | 26 | 989.5 |
| 20260506184501 | 23 | 311 | 3.2 | 16.1 | 0.00 | 0.00 | 0.00 | 25 | 989.4 |
| 20260506184233 | 23 | 317 | 9.7 | 14.5 | 0.00 | 0.00 | 0.00 | 25 | 989.3 |
| 20260506184041 | 23 | 329 | 6.4 | 12.9 | 0.00 | 0.00 | 0.00 | 25 | 989.4 |
| 20260506183840 | 23 | 322 | 6.4 | 16.1 | 0.00 | 0.00 | 0.00 | 25 | 989.3 |
| 20260506183634 | 23 | 339 | 9.7 | 16.1 | 0.00 | 0.00 | 0.00 | 24 | 989.4 |
| 20260506183223 | 23 | 322 | 14.5 | 16.1 | 0.00 | 0.00 | 0.00 | 24 | 989.4 |
| 20260506183016 | 23 | 334 | 9.7 | 12.9 | 0.00 | 0.00 | 0.00 | 24 | 989.4 |
| 20260506182610 | 24 | 328 | 9.7 | 16.1 | 0.00 | 0.00 | 0.00 | 24 | 989.3 |
| 20260506182400 | 24 | 334 | 8.0 | 12.9 | 0.00 | 0.00 | 0.00 | 24 | 989.3 |
| 20260506181753 | 24 | 315 | 9.7 | 16.1 | 0.00 | 0.00 | 0.00 | 23 | 989.3 |
| 20260506181611 | 24 | 334 | 8.0 | 14.5 | 0.00 | 0.00 | 0.00 | 23 | 989.3 |
| 20260506181351 | 24 | 332 | 8.0 | 16.1 | 0.00 | 0.00 | 0.00 | 23 | 989.3 |
| 20260506181155 | 25 | 323 | 4.8 | 16.1 | 0.00 | 0.00 | 0.00 | 23 | 989.3 |
| 20260506180944 | 25 | 318 | 8.0 | 16.1 | 0.00 | 0.00 | 0.00 | 23 | 989.2 |
| 20260506180746 | 25 | 319 | 6.4 | 12.9 | 0.00 | 0.00 | 0.00 | 23 | 989.3 |
| 20260506180531 | 25 | 332 | 6.4 | 11.3 | 0.00 | 0.00 | 0.00 | 23 | 989.3 |
| 20260506180335 | 25 | 338 | 4.8 | 14.5 | 0.00 | 0.00 | 0.00 | 23 | 989.3 |
| 20260506180125 | 25 | 334 | 9.7 | 14.5 | 0.00 | 0.00 | 0.00 | 23 | 989.3 |
| 20260506175936 | 25 | 343 | 11.3 | 19.3 | 0.00 | 0.00 | 0.00 | 23 | 989.2 |
| 20260506175719 | 25 | 332 | 6.4 | 20.9 | 0.00 | 0.00 | 0.00 | 22 | 989.3 |
| 20260506175525 | 25 | 333 | 17.7 | 20.9 | 0.00 | 0.00 | 0.00 | 22 | 989.3 |
| 20260506175319 | 25 | 336 | 14.5 | 20.9 | 0.00 | 0.00 | 0.00 | 22 | 989.4 |
| 20260506175124 | 25 | 335 | 17.7 | 17.7 | 0.00 | 0.00 | 0.00 | 22 | 989.4 |
| 20260506174717 | 25 | 338 | 14.5 | 14.5 | 0.00 | 0.00 | 0.00 | 22 | 989.4 |
| 20260506174506 | 25 | 331 | 6.4 | 14.5 | 0.00 | 0.00 | 0.00 | 22 | 989.4 |
| 20260506174338 | 25 | 323 | 6.4 | 17.7 | 0.00 | 0.00 | 0.00 | 21 | 989.4 |
| 20260506174053 | 25 | 322 | 6.4 | 19.3 | 0.00 | 0.00 | 0.00 | 21 | 989.4 |
| 20260506173719 | 25 | 328 | 14.5 | 14.5 | 0.00 | 0.00 | 0.00 | 21 | 989.4 |
| 20260506173248 | 25 | 329 | 9.7 | 14.5 | 0.00 | 0.00 | 0.00 | 21 | 989.4 |
| 20260506173115 | 25 | 340 | 9.7 | 16.1 | 0.00 | 0.00 | 0.00 | 21 | 989.4 |
| 20260506172637 | 25 | 336 | 14.5 | 17.7 | 0.00 | 0.00 | 0.00 | 21 | 989.3 |
| 20260506172505 | 26 | 324 | 11.3 | 19.3 | 0.00 | 0.00 | 0.00 | 21 | 989.4 |
| 20260506172238 | 26 | 330 | 11.3 | 19.3 | 0.00 | 0.00 | 0.00 | 21 | 989.4 |
| 20260506171857 | 26 | 324 | 9.7 | 12.9 | 0.00 | 0.00 | 0.00 | 20 | 989.4 |
| 20260506171636 | 26 | 331 | 4.8 | 16.1 | 0.00 | 0.00 | 0.00 | 20 | 989.4 |
| 20260506171426 | 26 | 327 | 11.3 | 16.1 | 0.00 | 0.00 | 0.00 | 20 | 989.4 |
| 20260506171009 | 26 | 349 | 6.4 | 14.5 | 0.00 | 0.00 | 0.00 | 20 | 989.3 |
| 20260506170815 | 26 | 346 | 9.7 | 14.5 | 0.00 | 0.00 | 0.00 | 20 | 989.4 |
| 20260506170413 | 26 | 337 | 8.0 | 16.1 | 0.00 | 0.00 | 0.00 | 20 | 989.5 |
| 20260506170205 | 26 | 321 | 8.0 | 9.7 | 0.00 | 0.00 | 0.00 | 21 | 989.5 |
| 20260506165347 | 25 | 351 | 4.8 | 12.9 | 0.00 | 0.00 | 0.00 | 21 | 989.5 |
| 20260506165158 | 25 | 329 | 6.4 | 16.1 | 0.00 | 0.00 | 0.00 | 22 | 989.5 |
| 20260506164943 | 25 | 344 | 6.4 | 16.1 | 0.00 | 0.00 | 0.00 | 21 | 989.6 |
| 20260506164748 | 25 | 324 | 12.9 | 12.9 | 0.00 | 0.00 | 0.00 | 22 | 989.5 |
| 20260506164542 | 25 | 347 | 6.4 | 9.7 | 0.00 | 0.00 | 0.00 | 22 | 989.6 |
| 20260506164331 | 25 | 303 | 3.2 | 9.7 | 0.00 | 0.00 | 0.00 | 22 | 989.6 |
| 20260506164155 | 25 | 341 | 1.6 | 9.7 | 0.00 | 0.00 | 0.00 | 22 | 989.6 |
| 20260506163919 | 25 | 335 | 4.8 | 14.5 | 0.00 | 0.00 | 0.00 | 22 | 989.6 |
| 20260506163735 | 25 | 342 | 6.4 | 14.5 | 0.00 | 0.00 | 0.00 | 22 | 989.6 |
| 20260506162910 | 25 | 340 | 12.9 | 14.5 | 0.00 | 0.00 | 0.00 | 23 | 989.5 |
| 20260506162125 | 25 | 324 | 6.4 | 19.3 | 0.00 | 0.00 | 0.00 | 23 | 989.5 |
| 20260506161852 | 25 | 327 | 14.5 | 19.3 | 0.00 | 0.00 | 0.00 | 23 | 989.5 |
| 20260506161649 | 25 | 329 | 8.0 | 19.3 | 0.00 | 0.00 | 0.00 | 23 | 989.5 |
| 20260506161039 | 25 | 0 | 14.5 | 17.7 | 0.00 | 0.00 | 0.00 | 21 | 989.5 |
| 20260506160842 | 25 | 311 | 11.3 | 14.5 | 0.00 | 0.00 | 0.00 | 21 | 989.6 |
| 20260506155813 | 26 | 339 | 9.7 | 11.3 | 0.00 | 0.00 | 0.00 | 19 | 989.6 |
| 20260506155626 | 26 | 285 | 9.7 | 12.9 | 0.00 | 0.00 | 0.00 | 19 | 989.5 |
| 20260506155414 | 26 | 333 | 4.8 | 12.9 | 0.00 | 0.00 | 0.00 | 19 | 989.6 |
| 20260506155002 | 26 | 347 | 6.4 | 11.3 | 0.00 | 0.00 | 0.00 | 19 | 989.5 |
| 20260506154358 | 26 | 333 | 9.7 | 12.9 | 0.00 | 0.00 | 0.00 | 19 | 989.6 |
| 20260506154215 | 26 | 320 | 4.8 | 12.9 | 0.00 | 0.00 | 0.00 | 19 | 989.7 |
| 20260506154000 | 26 | 334 | 9.7 | 14.5 | 0.00 | 0.00 | 0.00 | 18 | 989.6 |
| 20260506153745 | 26 | 333 | 8.0 | 16.1 | 0.00 | 0.00 | 0.00 | 18 | 989.6 |
| 20260506153618 | 26 | 338 | 12.9 | 16.1 | 0.00 | 0.00 | 0.00 | 17 | 989.6 |
| 20260506153342 | 26 | 358 | 16.1 | 16.1 | 0.00 | 0.00 | 0.00 | 16 | 989.6 |
| 20260506152952 | 27 | 333 | 9.7 | 11.3 | 0.00 | 0.00 | 0.00 | 16 | 989.5 |
| 20260506152123 | 27 | 282 | 12.9 | 17.7 | 0.00 | 0.00 | 0.00 | 15 | 989.7 |
| 20260506151918 | 27 | 342 | 9.7 | 17.7 | 0.00 | 0.00 | 0.00 | 15 | 989.7 |
| 20260506151516 | 27 | 0 | 12.9 | 14.5 | 0.00 | 0.00 | 0.00 | 16 | 989.7 |
| 20260506151306 | 27 | 340 | 8.0 | 16.1 | 0.00 | 0.00 | 0.00 | 16 | 989.8 |
| 20260506151137 | 27 | 309 | 6.4 | 16.1 | 0.00 | 0.00 | 0.00 | 16 | 989.7 |
| 20260506150857 | 27 | 319 | 6.4 | 16.1 | 0.00 | 0.00 | 0.00 | 16 | 989.8 |
| 20260506150729 | 27 | 315 | 11.3 | 11.3 | 0.00 | 0.00 | 0.00 | 15 | 989.8 |
| 20260506150455 | 27 | 332 | 3.2 | 12.9 | 0.00 | 0.00 | 0.00 | 15 | 989.9 |
| 20260506150052 | 27 | 328 | 6.4 | 14.5 | 0.00 | 0.00 | 0.00 | 16 | 989.9 |
| 20260506145857 | 27 | 334 | 6.4 | 14.5 | 0.00 | 0.00 | 0.00 | 16 | 989.9 |
| 20260506145456 | 26 | 331 | 8.0 | 11.3 | 0.00 | 0.00 | 0.00 | 17 | 990.0 |
| 20260506145239 | 26 | 341 | 6.4 | 11.3 | 0.00 | 0.00 | 0.00 | 17 | 990.1 |
| 20260506145059 | 26 | 334 | 3.2 | 14.5 | 0.00 | 0.00 | 0.00 | 17 | 990.1 |
| 20260506144833 | 26 | 334 | 6.4 | 14.5 | 0.00 | 0.00 | 0.00 | 17 | 990.1 |
| 20260506144436 | 26 | 356 | 8.0 | 12.9 | 0.00 | 0.00 | 0.00 | 17 | 990.3 |
| 20260506144247 | 26 | 0 | 3.2 | 16.1 | 0.00 | 0.00 | 0.00 | 17 | 990.3 |
| 20260506143614 | 27 | 315 | 1.6 | 14.5 | 0.00 | 0.00 | 0.00 | 16 | 990.4 |
| 20260506143419 | 27 | 284 | 14.5 | 14.5 | 0.00 | 0.00 | 0.00 | 15 | 990.4 |
| 20260506143243 | 27 | 324 | 4.8 | 14.5 | 0.00 | 0.00 | 0.00 | 15 | 990.4 |
| 20260506142809 | 27 | 353 | 9.7 | 9.7 | 0.00 | 0.00 | 0.00 | 15 | 990.4 |
| 20260506142205 | 27 | 344 | 11.3 | 14.5 | 0.00 | 0.00 | 0.00 | 15 | 990.4 |
| 20260506141754 | 27 | 110 | 3.2 | 16.1 | 0.00 | 0.00 | 0.00 | 15 | 990.5 |
| 20260506141541 | 27 | 331 | 4.8 | 16.1 | 0.00 | 0.00 | 0.00 | 16 | 990.5 |
| 20260506140940 | 27 | 313 | 4.8 | 14.5 | 0.00 | 0.00 | 0.00 | 15 | 990.6 |
| 20260506140723 | 27 | 336 | 8.0 | 11.3 | 0.00 | 0.00 | 0.00 | 16 | 990.6 |
| 20260506140218 | 26 | 314 | 8.0 | 14.5 | 0.00 | 0.00 | 0.00 | 17 | 990.7 |
| 20260506135915 | 26 | 332 | 8.0 | 14.5 | 0.00 | 0.00 | 0.00 | 17 | 990.8 |
| 20260506135722 | 26 | 319 | 6.4 | 14.5 | 0.00 | 0.00 | 0.00 | 17 | 990.8 |
| 20260506135503 | 27 | 303 | 3.2 | 14.5 | 0.00 | 0.00 | 0.00 | 17 | 990.8 |
| 20260506135103 | 26 | 352 | 14.5 | 14.5 | 0.00 | 0.00 | 0.00 | 17 | 990.9 |
| 20260506134720 | 26 | 257 | 6.4 | 9.7 | 0.00 | 0.00 | 0.00 | 18 | 990.9 |
| 20260506134502 | 26 | 321 | 4.8 | 9.7 | 0.00 | 0.00 | 0.00 | 19 | 991.0 |
| 20260506134250 | 26 | 327 | 9.7 | 9.7 | 0.00 | 0.00 | 0.00 | 19 | 991.0 |
| 20260506132433 | 26 | 345 | 6.4 | 12.9 | 0.00 | 0.00 | 0.00 | 18 | 991.2 |
| 20260506131812 | 27 | 330 | 6.4 | 12.9 | 0.00 | 0.00 | 0.00 | 16 | 991.2 |
| 20260506131359 | 27 | 312 | 3.2 | 11.3 | 0.00 | 0.00 | 0.00 | 16 | 991.3 |
| 20260506131000 | 27 | 246 | 1.6 | 16.1 | 0.00 | 0.00 | 0.00 | 17 | 991.3 |
| 20260506125937 | 27 | 336 | 4.8 | 8.0 | 0.00 | 0.00 | 0.00 | 18 | 991.5 |
| 20260506125736 | 27 | 283 | 3.2 | 9.7 | 0.00 | 0.00 | 0.00 | 18 | 991.4 |
| 20260506125604 | 26 | 351 | 3.2 | 9.7 | 0.00 | 0.00 | 0.00 | 18 | 991.5 |
| 20260506124950 | 26 | 328 | 8.0 | 9.7 | 0.00 | 0.00 | 0.00 | 19 | 991.5 |
| 20260506124137 | 26 | 282 | 9.7 | 9.7 | 0.00 | 0.00 | 0.00 | 19 | 991.7 |
| 20260506123135 | 26 | 320 | 4.8 | 14.5 | 0.00 | 0.00 | 0.00 | 20 | 991.8 |
| 20260506122653 | 26 | 359 | 11.3 | 14.5 | 0.00 | 0.00 | 0.00 | 19 | 991.9 |
| 20260506122256 | 26 | 332 | 11.3 | 19.3 | 0.00 | 0.00 | 0.00 | 19 | 991.8 |
| 20260506122123 | 26 | 322 | 9.7 | 9.7 | 0.00 | 0.00 | 0.00 | 20 | 991.8 |
| 20260506121909 | 26 | 334 | 1.6 | 8.0 | 0.00 | 0.00 | 0.00 | 20 | 991.9 |
| 20260506121434 | 25 | 321 | 3.2 | 11.3 | 0.00 | 0.00 | 0.00 | 21 | 992.0 |
| 20260506121239 | 25 | 237 | 8.0 | 11.3 | 0.00 | 0.00 | 0.00 | 21 | 992.0 |
| 20260506121110 | 25 | 314 | 6.4 | 11.3 | 0.00 | 0.00 | 0.00 | 21 | 992.1 |
| 20260506120851 | 25 | 344 | 3.2 | 14.5 | 0.00 | 0.00 | 0.00 | 21 | 992.1 |
| 20260506120229 | 25 | 315 | 6.4 | 12.9 | 0.00 | 0.00 | 0.00 | 20 | 992.1 |
| 20260506120054 | 26 | 330 | 8.0 | 12.9 | 0.00 | 0.00 | 0.00 | 20 | 992.1 |
| 20260506115416 | 26 | 304 | 3.2 | 11.3 | 0.00 | 0.00 | 0.00 | 20 | 992.2 |
| 20260506114957 | 26 | 348 | 9.7 | 9.7 | 0.00 | 0.00 | 0.00 | 20 | 992.2 |
| 20260506114747 | 26 | 283 | 0.0 | 11.3 | 0.00 | 0.00 | 0.00 | 21 | 992.2 |
| 20260506114624 | 26 | 319 | 1.6 | 11.3 | 0.00 | 0.00 | 0.00 | 21 | 992.2 |
| 20260506114343 | 25 | 345 | 11.3 | 11.3 | 0.00 | 0.00 | 0.00 | 21 | 992.4 |
| 20260506113745 | 25 | 0 | 11.3 | 19.3 | 0.00 | 0.00 | 0.00 | 20 | 992.5 |
| 20260506113404 | 25 | 345 | 9.7 | 17.7 | 0.00 | 0.00 | 0.00 | 20 | 992.4 |
| 20260506113127 | 25 | 290 | 0.0 | 17.7 | 0.00 | 0.00 | 0.00 | 21 | 992.4 |
| 20260506112929 | 25 | 288 | 14.5 | 17.7 | 0.00 | 0.00 | 0.00 | 21 | 992.5 |
| 20260506112539 | 25 | 294 | 8.0 | 14.5 | 0.00 | 0.00 | 0.00 | 21 | 992.5 |
| 20260506112320 | 25 | 315 | 3.2 | 14.5 | 0.00 | 0.00 | 0.00 | 21 | 992.5 |
| 20260506112124 | 25 | 345 | 9.7 | 14.5 | 0.00 | 0.00 | 0.00 | 22 | 992.7 |
| 20260506111706 | 25 | 278 | 4.8 | 14.5 | 0.00 | 0.00 | 0.00 | 21 | 992.6 |
| 20260506111528 | 25 | 337 | 8.0 | 14.5 | 0.00 | 0.00 | 0.00 | 22 | 992.7 |
| 20260506111055 | 24 | 106 | 1.6 | 11.3 | 0.00 | 0.00 | 0.00 | 23 | 992.6 |
| 20260506110901 | 24 | 100 | 3.2 | 12.9 | 0.00 | 0.00 | 0.00 | 22 | 992.6 |
| 20260506110649 | 24 | 103 | 6.4 | 12.9 | 0.00 | 0.00 | 0.00 | 23 | 992.7 |
| 20260506110458 | 24 | 293 | 8.0 | 11.3 | 0.00 | 0.00 | 0.00 | 23 | 992.7 |
| 20260506110243 | 24 | 96 | 8.0 | 14.5 | 0.00 | 0.00 | 0.00 | 22 | 992.7 |
| 20260506110043 | 25 | 341 | 8.0 | 14.5 | 0.00 | 0.00 | 0.00 | 23 | 992.8 |
| 20260506105640 | 24 | 54 | 6.4 | 11.3 | 0.00 | 0.00 | 0.00 | 23 | 992.7 |
| 20260506105019 | 23 | 310 | 11.3 | 12.9 | 0.00 | 0.00 | 0.00 | 24 | 992.9 |
| 20260506104825 | 23 | 334 | 9.7 | 12.9 | 0.00 | 0.00 | 0.00 | 24 | 992.9 |
| 20260506104611 | 23 | 253 | 6.4 | 12.9 | 0.00 | 0.00 | 0.00 | 24 | 992.9 |
| 20260506104415 | 23 | 142 | 6.4 | 9.7 | 0.00 | 0.00 | 0.00 | 24 | 992.7 |
| 20260506104017 | 24 | 321 | 4.8 | 8.0 | 0.00 | 0.00 | 0.00 | 25 | 992.8 |
| 20260506103803 | 24 | 317 | 4.8 | 9.7 | 0.00 | 0.00 | 0.00 | 25 | 992.9 |
| 20260506103352 | 24 | 329 | 6.4 | 9.7 | 0.00 | 0.00 | 0.00 | 25 | 992.8 |
| 20260506103156 | 24 | 259 | 4.8 | 11.3 | 0.00 | 0.00 | 0.00 | 25 | 992.8 |
| 20260506102759 | 23 | 339 | 3.2 | 14.5 | 0.00 | 0.00 | 0.00 | 25 | 992.9 |
| 20260506102545 | 24 | 341 | 3.2 | 12.9 | 0.00 | 0.00 | 0.00 | 25 | 992.8 |
| 20260506102140 | 24 | 323 | 8.0 | 14.5 | 0.00 | 0.00 | 0.00 | 26 | 992.9 |
| 20260506101951 | 24 | 333 | 4.8 | 14.5 | 0.00 | 0.00 | 0.00 | 26 | 992.9 |
| 20260506101800 | 24 | 347 | 11.3 | 12.9 | 0.00 | 0.00 | 0.00 | 26 | 992.9 |
| 20260506101556 | 24 | 345 | 6.4 | 9.7 | 0.00 | 0.00 | 0.00 | 27 | 993.0 |
| 20260506101320 | 23 | 356 | 8.0 | 11.3 | 0.00 | 0.00 | 0.00 | 27 | 993.0 |
| 20260506101127 | 23 | 307 | 4.8 | 11.3 | 0.00 | 0.00 | 0.00 | 27 | 992.9 |
| 20260506100934 | 23 | 317 | 3.2 | 16.1 | 0.00 | 0.00 | 0.00 | 28 | 992.9 |
| 20260506100725 | 23 | 346 | 4.8 | 16.1 | 0.00 | 0.00 | 0.00 | 28 | 992.9 |
| 20260506100514 | 23 | 309 | 9.7 | 16.1 | 0.00 | 0.00 | 0.00 | 28 | 992.9 |
| 20260506100006 | 23 | 311 | 9.7 | 12.9 | 0.00 | 0.00 | 0.00 | 28 | 992.9 |
| 20260506095723 | 23 | 349 | 8.0 | 12.9 | 0.00 | 0.00 | 0.00 | 28 | 992.9 |
| 20260506095531 | 23 | 330 | 8.0 | 12.9 | 0.00 | 0.00 | 0.00 | 28 | 992.9 |
| 20260506095255 | 23 | 316 | 11.3 | 12.9 | 0.00 | 0.00 | 0.00 | 28 | 992.9 |
| 20260506095115 | 23 | 342 | 11.3 | 11.3 | 0.00 | 0.00 | 0.00 | 29 | 992.9 |
| 20260506094902 | 23 | 325 | 6.4 | 12.9 | 0.00 | 0.00 | 0.00 | 29 | 993.0 |
| 20260506094516 | 23 | 331 | 8.0 | 12.9 | 0.00 | 0.00 | 0.00 | 29 | 993.0 |
| 20260506094253 | 22 | 331 | 6.4 | 17.7 | 0.00 | 0.00 | 0.00 | 29 | 993.0 |
| 20260506093914 | 22 | 352 | 11.3 | 17.7 | 0.00 | 0.00 | 0.00 | 29 | 993.1 |
| 20260506093636 | 22 | 327 | 14.5 | 17.7 | 0.00 | 0.00 | 0.00 | 29 | 993.1 |
| 20260506093018 | 22 | 336 | 9.7 | 12.9 | 0.00 | 0.00 | 0.00 | 30 | 993.0 |
| 20260506092823 | 22 | 322 | 6.4 | 12.9 | 0.00 | 0.00 | 0.00 | 31 | 993.0 |
| 20260506092014 | 22 | 337 | 14.5 | 16.1 | 0.00 | 0.00 | 0.00 | 31 | 993.2 |
| 20260506091813 | 22 | 336 | 9.7 | 16.1 | 0.00 | 0.00 | 0.00 | 31 | 993.2 |
| 20260506091357 | 22 | 333 | 11.3 | 11.3 | 0.00 | 0.00 | 0.00 | 31 | 993.1 |
| 20260506090941 | 22 | 326 | 8.0 | 11.3 | 0.00 | 0.00 | 0.00 | 32 | 993.1 |
| 20260506090536 | 22 | 331 | 9.7 | 12.9 | 0.00 | 0.00 | 0.00 | 33 | 993.2 |
| 20260506085731 | 22 | 337 | 3.2 | 12.9 | 0.00 | 0.00 | 0.00 | 33 | 993.2 |
| 20260506085332 | 22 | 332 | 4.8 | 14.5 | 0.00 | 0.00 | 0.00 | 34 | 993.2 |
| 20260506085114 | 22 | 323 | 4.8 | 14.5 | 0.00 | 0.00 | 0.00 | 34 | 993.2 |
| 20260506084929 | 22 | 310 | 4.8 | 12.9 | 0.00 | 0.00 | 0.00 | 34 | 993.2 |
| 20260506084708 | 22 | 346 | 8.0 | 11.3 | 0.00 | 0.00 | 0.00 | 34 | 993.2 |
| 20260506084308 | 21 | 333 | 4.8 | 14.5 | 0.00 | 0.00 | 0.00 | 35 | 993.3 |
| 20260506084105 | 21 | 329 | 9.7 | 14.5 | 0.00 | 0.00 | 0.00 | 34 | 993.3 |
| 20260506083910 | 21 | 328 | 9.7 | 14.5 | 0.00 | 0.00 | 0.00 | 35 | 993.4 |
| 20260506083459 | 21 | 315 | 3.2 | 11.3 | 0.00 | 0.00 | 0.00 | 36 | 993.3 |
| 20260506083307 | 21 | 337 | 6.4 | 12.9 | 0.00 | 0.00 | 0.00 | 36 | 993.4 |
| 20260506083047 | 21 | 324 | 3.2 | 12.9 | 0.00 | 0.00 | 0.00 | 36 | 993.4 |
| 20260506082640 | 21 | 319 | 8.0 | 14.5 | 0.00 | 0.00 | 0.00 | 36 | 993.4 |
| 20260506082447 | 21 | 348 | 6.4 | 14.5 | 0.00 | 0.00 | 0.00 | 36 | 993.4 |
| 20260506082238 | 21 | 330 | 14.5 | 14.5 | 0.00 | 0.00 | 0.00 | 36 | 993.4 |
| 20260506082035 | 21 | 342 | 9.7 | 17.7 | 0.00 | 0.00 | 0.00 | 36 | 993.4 |
| 20260506081826 | 21 | 346 | 12.9 | 17.7 | 0.00 | 0.00 | 0.00 | 36 | 993.5 |
| 20260506081646 | 21 | 315 | 9.7 | 17.7 | 0.00 | 0.00 | 0.00 | 36 | 993.4 |
| 20260506081423 | 21 | 331 | 6.4 | 12.9 | 0.00 | 0.00 | 0.00 | 36 | 993.4 |
| 20260506081031 | 21 | 345 | 9.7 | 11.3 | 0.00 | 0.00 | 0.00 | 37 | 993.4 |
| 20260506080835 | 21 | 64 | 3.2 | 9.7 | 0.00 | 0.00 | 0.00 | 37 | 993.3 |
| 20260506080621 | 21 | 316 | 8.0 | 9.7 | 0.00 | 0.00 | 0.00 | 38 | 993.3 |
| 20260506080419 | 21 | 326 | 3.2 | 11.3 | 0.00 | 0.00 | 0.00 | 38 | 993.3 |
| 20260506073310 | 20 | 338 | 9.7 | 9.7 | 0.00 | 0.00 | 0.00 | 41 | 993.4 |
| 20260506073146 | 20 | 358 | 4.8 | 11.3 | 0.00 | 0.00 | 0.00 | 41 | 993.4 |
| 20260506072912 | 20 | 329 | 6.4 | 11.3 | 0.00 | 0.00 | 0.00 | 41 | 993.4 |
| 20260506072711 | 20 | 350 | 6.4 | 11.3 | 0.00 | 0.00 | 0.00 | 41 | 993.5 |
| 20260506072310 | 19 | 316 | 1.6 | 9.7 | 0.00 | 0.00 | 0.00 | 42 | 993.5 |
| 20260506072059 | 19 | 335 | 4.8 | 9.7 | 0.00 | 0.00 | 0.00 | 42 | 993.5 |
| 20260506071919 | 19 | 339 | 4.8 | 8.0 | 0.00 | 0.00 | 0.00 | 42 | 993.5 |
| 20260506071651 | 19 | 328 | 1.6 | 8.0 | 0.00 | 0.00 | 0.00 | 42 | 993.5 |
| 20260506071524 | 19 | 331 | 4.8 | 8.0 | 0.00 | 0.00 | 0.00 | 42 | 993.5 |
| 20260506071052 | 19 | 342 | 1.6 | 6.4 | 0.00 | 0.00 | 0.00 | 42 | 993.6 |
| 20260506070835 | 20 | 25 | 3.2 | 6.4 | 0.00 | 0.00 | 0.00 | 42 | 993.6 |
| 20260506070728 | 20 | 341 | 3.2 | 6.4 | 0.00 | 0.00 | 0.00 | 42 | 993.6 |
| 20260506070442 | 20 | 353 | 3.2 | 4.8 | 0.00 | 0.00 | 0.00 | 42 | 993.7 |
| 20260506070250 | 20 | 328 | 4.8 | 4.8 | 0.00 | 0.00 | 0.00 | 42 | 993.6 |
| 20260506062324 | 17 | 270 | 0.0 | 0.0 | 0.00 | 0.00 | 0.00 | 47 | 993.5 |
| 20260506062149 | 17 | 180 | 0.0 | 0.0 | 0.00 | 0.00 | 0.00 | 48 | 993.4 |
| 20260506061938 | 16 | 180 | 0.0 | 0.0 | 0.00 | 0.00 | 0.00 | 49 | 993.4 |
| 20260506061725 | 16 | 180 | 0.0 | 0.0 | 0.00 | 0.00 | 0.00 | 49 | 993.5 |
| 20260506061512 | 16 | 180 | 0.0 | 0.0 | 0.00 | 0.00 | 0.00 | 50 | 993.5 |
| 20260506061325 | 16 | 180 | 0.0 | 1.6 | 0.00 | 0.00 | 0.00 | 50 | 993.5 |
| 20260506060926 | 15 | 125 | 1.6 | 1.6 | 0.00 | 0.00 | 0.00 | 49 | 993.5 |
| 20260506060705 | 15 | 135 | 0.0 | 0.0 | 0.00 | 0.00 | 0.00 | 50 | 993.5 |
| 20260506060502 | 15 | 225 | 0.0 | 0.0 | 0.00 | 0.00 | 0.00 | 50 | 993.6 |
| 20260506060253 | 15 | 225 | 0.0 | 0.0 | 0.00 | 0.00 | 0.00 | 50 | 993.5 |